COSMOS 397 DEB, 5144

Orbit data source: Space-Track

COSMOS 397 DEB, 5144 is space debris in LEO originally from a launch on Thu, 25 Feb 1971 UTC launched from the Tyuratam Missile And Space Complex (TTMTR). Debris objects in space refer to the collection of defunct objects orbiting the Earth. Examples of debris include non-operational satellites, rocket bodies, and fragments generated from explosions, collisions, or faulty payload assembly.

Loading next visibility...
Identifier
5144, 1971-015AG
Orbit
LEO
Country
Flag of CISCIS
Related business
Manufacturer
Unknown
Mission
Spacecraft
Bus & Motor
Unknown
Mass
Unknown
Launch date (UTC)
1971-02-25 (55 years ago)
Launch vehicle
Unknown
Launch site
Tyuratam Missile And Space Complex (TTMTR)
Object type
Payload
Rocket body
Debris
Shape & HBR
Unknown shape, 0.1 m
Radar Cross Section
Small (<0.1 m²)

Expand to show TLE details & history
Last TLE update: 20 hours ago

TLE from 20 hours ago
0 COSMOS 397 DEB
1 05144U 71015AG  25348.78263043  .00006933  00000-0  14765-2 0  9999
2 05144  65.7060 143.9952 0451029 119.2178 245.4795 14.11230766672252
Epoch: 2025-12-14T18:46Z
TLE epoch observation values (Epoch: 2025-12-14T18:46:59.269Z)
Latitude
-0.00003°
Longitude
138.55763°
Altitude
1,004.433 km
Speed
7.275 km/s
True Right ascension
09h 35m 58s
True Declination
0° 00' 00"
Sunlit
Object was in daylight at epoch
Visualization orbit readout
Latitude
Unknown
Longitude
Unknown
Altitude
Unknown
Speed
Unknown
Apparent Right ascension
Unknown
Apparent Declination
Unknown
Sunlit
N/A
Visualization observer readout
Local Sidereal Time
13:21:46
Azimuth
Unknown
Elevation
Unknown
Doppler factor
Unknown
Orbital elements
Apogee altitude
1,179.84 km
Perigee altitude
527.49 km
Semi-major axis
7,231.802 km
Eccentricity
0.0451
Inclination
65.706°
RAAN
143.9952°
Arg. of periapsis
119.2178°
True anomaly
240.88972°
Mean anomaly
245.4795°
Eccentric anomaly
243.17342°
Mean motion
3.52918 °/min
Orbital period
102.01 mins
BSTAR
0.0014765
Loading maneuver chart data...
Computing Atmospheric mass density...
Loading historical data...
Loading historical data...
Loading historical data...
Loading historical data...
Loading historical data...
Loading historical data...
Loading historical data...

Documentation

Showing up to 5 results
|